This is the latest recevied weather packets stored in our database for station/object DK7LH-6. If no packets are shown the sender has not sent any weather packets the latest 10 day(s).
| Time | Temp. | Humidity | Pressure | Rain* | Wind** | Luminosity | Snow |
|---|---|---|---|---|---|---|---|
| 1778126473 | 6.11° C | 97% | 1012.1 hPa | 0 mm | - | 3 W/m² | - |
| 1778125543 | 5.56° C | 96% | 1011.9 hPa | 0 mm | - | 1 W/m² | - |
| 1778124674 | 5.56° C | 96% | 1011.8 hPa | 0 mm | - | 0 W/m² | - |
| 1778123744 | 5.56° C | 96% | 1011.6 hPa | 0 mm | - | 0 W/m² | - |
| 1778122876 | 5.56° C | 95% | 1011.6 hPa | 0 mm | - | 0 W/m² | - |
| 1778121946 | 5.56° C | 95% | 1011.5 hPa | 0 mm | - | 0 W/m² | - |
| 1778121016 | 6.11° C | 95% | 1011.3 hPa | 0 mm | - | 0 W/m² | - |
| 1778120148 | 6.11° C | 94% | 1011.3 hPa | 0 mm | - | 0 W/m² | - |
| 1778119219 | 6.11° C | 94% | 1011.1 hPa | 0 mm | - | 0 W/m² | - |
| 1778118350 | 6.11° C | 94% | 1011.1 hPa | 0 mm | - | 0 W/m² | - |
| 1778117420 | 6.11° C | 94% | 1011 hPa | 0 mm | - | 0 W/m² | - |
| 1778116552 | 6.11° C | 94% | 1011 hPa | 0 mm | - | 0 W/m² | - |
| 1778115622 | 6.67° C | 94% | 1010.9 hPa | 0 mm | - | 0 W/m² | - |
| 1778114754 | 6.67° C | 93% | 1010.7 hPa | 0 mm | - | 0 W/m² | - |
| 1778113824 | 7.22° C | 94% | 1010.8 hPa | 0 mm | - | 0 W/m² | - |
| 1778112956 | 7.22° C | 94% | 1010.7 hPa | 0 mm | - | 0 W/m² | - |
| 1778112026 | 7.78° C | 95% | 1010.7 hPa | 0 mm | - | 0 W/m² | - |
| 1778111158 | 8.33° C | 95% | 1010.5 hPa | 0 mm | - | 0 W/m² | - |
| 1778110228 | 8.33° C | 96% | 1010.4 hPa | 0 mm | - | 0 W/m² | - |
| 1778109360 | 8.89° C | 96% | 1010.5 hPa | 0 mm | - | 0 W/m² | - |
| 1778108430 | 8.89° C | 96% | 1010.3 hPa | 0 mm | - | 0 W/m² | - |
| 1778107562 | 8.89° C | 96% | 1010.4 hPa | 0 mm | - | 0 W/m² | - |
| 1778106632 | 9.44° C | 96% | 1010.3 hPa | 0 mm | - | 0 W/m² | - |
| 1778105764 | 9.44° C | 96% | 1010.3 hPa | 0 mm | - | 0 W/m² | - |
| 1778104836 | 9.44° C | 96% | 1010.3 hPa | 0 mm | - | 0 W/m² | - |
* Rain latest hour (hover to see other rain measurements)
** Current wind speed in m/s (hover to see current wind gust speed)